Wind_Speed
26 25 25 24 24 24 23 23 22 22 22 22 22 21 20 19 17 15 14 14 13 13 11 11 12 12 12 13 13 13 13 13 14 14 15 16 16 17 20 22 23 26 30 32 35 39 42 45 45 43 42 47 52 55 52 50 49 47 48 51 50 46 44 44 43 43 42 38 36 38 41 40 36 35 39 40 36 32 30 29 28 31 40 47 46 40 29
25 25 25 25 24 24 24 24 23 23 22 21 21 20 19 18 16 13 12 12 11 10 9 10 11 12 12 12 11 12 12 12 13 13 14 15 16 17 21 23 24 28 31 34 38 42 44 45 44 41 40 45 51 55 57 54 51 51 52 54 52 47 46 48 46 43 45 43 40 43 44 44 45 42 42 44 43 37 31 28 28 30 31 33 37 43 40
25 25 25 25 25 24 25 25 24 24 23 22 21 20 18 17 14 12 11 10 9 9 9 9 11 11 11 11 11 11 11 12 13 13 14 15 16 19 22 25 26 29 34 37 39 40 38 37 37 37 36 37 41 47 51 49 49 53 55 53 52 50 49 51 51 48 46 42 40 41 40 41 46 47 45 47 45 42 37 32 33 38 40 36 30 34 42
25 25 25 25 25 25 25 26 26 25 24 23 22 20 18 16 14 12 10 9 8 9 9 9 10 10 11 12 12 12 12 13 14 16 16 17 18 20 24 27 29 32 34 35 33 30 29 30 32 33 33 33 36 41 40 39 41 47 50 52 54 55 54 53 54 53 49 44 42 44 44 45 48 46 43 42 40 40 41 40 41 43 44 43 35 28 29
25 25 25 25 26 26 27 27 26 25 24 23 22 20 18 15 13 11 10 9 8 9 9 9 10 11 12 13 13 13 14 15 16 18 19 19 21 23 25 29 31 30 29 27 25 23 25 27 27 26 28 29 32 34 33 33 36 36 40 47 52 56 58 57 56 56 53 48 45 45 47 51 52 50 49 48 44 40 42 48 49 45 43 43 39 36 33
25 25 26 27 27 28 28 28 26 25 24 23 22 20 17 14 12 10 10 9 9 9 10 10 12 13 13 14 14 14 15 17 18 20 20 21 22 24 27 30 29 25 22 21 20 21 22 22 21 21 22 23 25 26 25 28 32 32 32 39 46 54 58 59 59 59 57 53 49 48 48 51 52 52 55 57 55 49 43 47 49 45 45 46 38 36 40
26 27 27 28 29 29 29 27 25 24 23 23 22 20 17 13 11 10 9 9 9 9 10 11 13 14 14 14 15 15 16 18 19 21 21 22 23 25 29 29 24 20 18 17 18 19 19 19 19 18 19 19 20 21 20 23 28 30 30 32 37 46 54 57 59 63 63 59 55 52 51 50 51 54 56 56 60 59 50 47 52 51 49 47 40 36 44
27 28 29 29 30 29 27 25 23 23 22 22 22 21 17 12 10 9 8 8 9 10 12 13 14 14 15 15 16 15 16 18 19 20 21 23 25 27 28 25 20 17 15 13 16 18 17 17 18 17 17 17 17 18 19 21 25 27 28 29 30 35 43 51 56 61 66 64 60 57 55 52 51 53 56 56 58 62 59 54 56 57 55 51 42 38 46
28 29 30 30 29 27 25 24 23 22 22 21 21 21 18 13 10 8 8 8 10 12 13 14 14 15 16 17 17 16 16 17 19 20 21 23 26 27 26 22 17 14 12 12 14 15 15 15 16 17 17 16 17 17 17 20 23 23 25 27 27 26 30 40 49 57 63 64 61 59 56 55 54 53 54 56 57 62 67 67 65 65 64 56 45 43 49
29 30 29 28 26 25 24 23 22 22 22 21 20 20 19 15 11 8 8 8 11 13 14 15 15 16 17 18 18 17 16 17 19 20 21 23 25 26 24 19 14 10 10 12 13 13 13 14 15 16 16 16 16 16 16 18 20 22 24 26 25 23 23 27 36 47 56 60 61 60 57 58 60 57 53 54 57 60 66 71 71 72 69 60 53 51 52
29 28 27 25 25 24 24 24 23 22 22 21 20 19 19 18 14 10 9 10 12 13 14 15 16 17 19 19 19 18 17 18 19 20 21 23 24 25 22 17 11 8 8 10 11 12 13 13 14 15 15 15 16 16 15 16 17 20 23 25 25 25 23 21 24 34 45 54 58 60 61 63 65 61 53 51 53 56 61 67 70 70 69 66 63 58 55
27 26 25 25 25 25 24 24 23 22 22 21 20 19 18 19 17 15 13 13 13 13 13 15 16 17 18 19 19 18 17 18 19 20 21 23 23 23 21 16 9 6 6 7 9 10 11 11 12 12 12 14 15 16 16 15 15 17 20 23 26 26 25 23 23 27 33 43 51 56 61 64 64 60 54 49 50 53 56 63 67 66 68 71 71 67 64
25 24 24 25 25 25 25 25 23 22 21 20 20 19 18 18 17 16 15 15 14 12 13 14 16 17 17 18 17 16 17 18 19 20 21 22 23 22 19 14 8 4 4 6 9 10 10 11 12 11 11 12 12 14 17 18 17 17 18 21 25 27 27 27 26 26 27 33 41 50 56 59 59 58 55 52 53 55 55 58 65 69 70 71 69 67 65
23 23 23 24 25 25 26 25 24 23 21 20 20 19 19 18 16 16 16 16 14 12 12 14 16 17 17 17 16 16 17 18 20 21 21 22 23 21 15 10 6 3 3 7 11 13 14 15 15 11 8 8 9 11 15 17 18 19 19 19 21 25 28 28 27 27 29 29 32 38 45 52 56 55 55 55 54 52 51 54 61 66 67 68 67 65 63
21 22 23 23 24 25 26 26 26 25 24 22 21 20 19 18 17 17 17 15 14 14 15 16 16 17 17 17 16 17 19 20 20 20 20 21 22 20 15 8 5 5 6 8 12 15 16 17 14 9 5 7 9 10 12 14 16 19 22 22 23 25 27 28 29 29 29 30 31 31 36 48 57 56 55 56 53 50 50 51 55 59 64 67 67 64 62
21 21 22 23 24 25 25 26 26 25 25 23 22 22 21 20 20 19 17 17 17 17 17 16 16 17 17 17 18 20 21 21 21 20 20 20 20 21 17 11 8 9 9 10 12 15 16 16 12 8 6 7 9 9 10 12 14 17 21 23 25 26 26 27 28 29 30 31 33 31 33 42 53 55 56 56 53 51 51 51 52 54 61 68 67 64 63
20 21 22 23 24 24 25 25 25 24 24 24 23 23 23 22 22 20 19 19 19 17 16 14 15 17 18 19 21 22 22 22 22 22 21 20 20 21 20 16 12 11 11 12 13 14 15 15 11 8 7 6 8 10 11 12 13 15 18 21 23 26 29 30 29 29 30 32 32 30 30 36 45 52 55 55 53 52 52 54 55 53 56 64 67 65 65
19 20 21 22 23 24 24 25 25 24 24 24 24 24 24 23 22 21 20 20 19 16 14 14 17 19 20 22 23 23 23 23 23 23 23 21 20 21 21 20 17 13 11 11 13 13 15 15 12 9 9 8 9 11 13 14 15 15 16 19 22 25 28 30 31 30 30 32 33 30 29 34 42 49 52 52 52 53 54 53 55 55 54 59 65 66 66
19 20 21 22 23 23 24 24 24 24 24 24 24 24 24 23 23 22 21 21 20 17 14 16 19 21 22 22 23 24 24 24 24 24 24 23 22 22 21 20 19 17 13 11 10 10 13 16 14 11 11 12 12 12 12 15 16 15 13 15 19 22 25 28 30 31 31 32 33 32 32 35 40 46 52 52 49 52 57 55 54 54 54 54 58 64 67
19 19 21 22 22 23 23 23 24 24 24 24 24 24 24 24 23 22 22 22 21 19 16 16 19 22 22 22 23 25 25 25 25 25 25 25 25 23 21 20 20 19 17 14 10 8 10 13 14 13 13 13 13 12 11 14 16 12 9 10 13 18 24 26 26 28 31 33 34 35 36 37 37 42 51 53 48 49 55 56 54 55 55 53 53 57 63
19 19 20 21 22 22 22 23 23 23 24 24 24 24 24 24 24 23 23 22 22 21 18 17 18 21 22 22 23 25 26 26 26 26 26 27 26 24 22 21 21 20 19 16 14 11 9 10 10 10 12 13 13 11 10 12 13 9 7 8 10 14 19 22 24 26 30 35 39 39 38 37 36 40 48 52 49 49 52 52 51 53 55 54 53 52 56
19 20 20 21 21 21 22 22 22 23 23 24 24 24 24 24 24 23 23 23 22 22 21 19 18 19 21 22 22 24 26 26 26 26 26 27 27 26 25 23 22 21 20 17 16 16 12 7 6 8 12 12 11 10 8 9 10 8 7 7 7 10 14 18 23 27 29 34 39 39 38 39 39 40 46 50 48 47 50 50 47 49 52 52 51 51 52
19 19 20 20 21 21 21 21 22 22 23 23 23 24 24 24 24 24 23 23 22 22 21 20 18 19 21 22 22 23 24 24 24 25 26 26 27 28 27 26 24 23 22 20 18 18 16 13 9 10 12 11 10 9 8 8 10 10 10 10 9 9 10 13 20 26 26 29 37 39 38 40 42 41 44 48 48 46 48 48 45 45 49 51 51 52 52
19 19 20 20 21 21 21 21 21 21 22 22 22 23 23 23 24 23 23 22 22 21 20 19 20 20 20 21 22 22 22 23 23 23 24 26 27 27 28 28 28 27 25 24 22 19 18 17 16 16 16 13 11 13 12 11 12 11 11 13 14 11 9 11 17 23 24 26 34 40 39 39 41 43 43 45 46 45 45 46 43 39 41 47 53 55 53
19 19 20 20 21 21 21 21 21 21 21 21 21 21 21 22 22 22 22 22 23 22 19 19 21 22 20 20 22 21 20 20 21 22 23 25 26 27 27 28 28 29 29 28 26 23 20 19 19 20 20 18 14 16 18 16 13 13 13 12 13 10 6 6 11 20 25 26 30 37 40 39 41 43 44 44 44 43 43 45 44 39 36 39 48 55 55
19 19 20 20 20 21 21 21 21 20 20 20 20 20 20 20 20 21 21 22 22 23 21 19 21 22 20 20 21 21 19 19 19 20 21 23 24 26 27 27 27 28 29 28 29 29 25 21 18 18 21 21 18 16 20 19 16 15 15 11 8 8 5 4 6 12 20 24 27 32 38 41 42 42 43 43 43 41 41 44 44 40 36 36 42 49 54
18 19 20 20 20 20 21 21 21 20 20 19 19 19 19 19 19 19 20 21 21 22 22 20 20 20 20 21 21 21 20 19 19 18 19 20 22 24 25 26 26 27 27 26 27 29 29 26 21 17 18 20 18 16 19 21 20 17 15 11 8 6 5 5 5 7 12 17 22 29 36 39 42 41 40 41 42 40 40 43 43 41 38 36 37 43 50
18 19 19 20 20 20 20 20 20 20 20 20 19 19 18 18 18 18 19 19 20 20 21 20 19 19 20 21 21 20 20 19 19 19 18 19 20 21 23 24 24 25 26 26 25 26 28 30 28 23 18 17 16 17 19 21 22 19 16 15 13 10 7 5 3 5 9 12 18 26 32 36 39 40 38 38 40 39 38 41 44 42 40 37 36 38 47
18 19 19 20 20 20 20 20 20 20 20 20 19 19 19 18 19 19 18 18 19 19 20 20 19 18 19 21 20 19 20 19 19 18 18 18 19 20 20 22 23 23 25 26 25 25 27 28 29 29 26 21 17 16 17 18 19 19 18 18 17 14 11 9 4 2 8 14 20 24 28 31 36 38 37 36 38 37 37 40 43 43 41 39 36 36 43
19 19 19 20 20 20 20 20 20 20 20 19 19 19 19 18 19 19 18 18 19 19 19 20 19 18 18 19 19 18 19 19 18 18 17 18 19 20 19 20 22 23 23 24 24 24 25 26 27 28 30 27 23 20 17 15 16 17 18 17 15 14 13 11 7 3 5 14 20 23 25 27 31 34 35 35 35 35 34 37 42 45 44 40 37 36 39
19 20 20 20 20 20 20 20 20 20 19 19 18 18 18 18 19 19 18 18 19 19 19 20 20 19 19 19 19 19 20 19 18 18 17 17 18 20 20 19 21 22 22 22 22 21 23 25 26 25 26 27 26 25 23 19 16 16 17 16 13 12 12 12 11 9 5 8 17 23 24 25 28 32 34 34 34 33 33 36 42 46 46 43 39 37 38
19 19 20 20 20 20 20 20 20 20 20 19 19 19 18 19 19 20 20 19 19 20 20 20 21 21 19 19 19 19 20 20 19 18 18 17 16 19 20 19 20 22 20 20 22 21 21 23 24 24 24 26 26 26 26 24 21 19 18 17 16 14 11 10 10 9 7 4 11 19 23 24 26 30 32 32 32 32 34 37 41 46 48 46 41 38 38
19 19 20 20 20 20 20 20 20 20 19 19 19 19 19 20 20 21 21 21 20 20 20 20 21 21 20 20 21 21 21 21 19 19 19 18 16 18 20 19 19 20 19 18 20 21 21 22 24 23 23 24 25 26 25 25 24 23 22 21 19 16 13 10 8 7 6 5 8 15 20 23 26 29 30 30 30 32 33 36 41 45 45 44 42 40 40
19 19 20 20 20 20 20 20 20 20 19 19 19 20 20 21 21 22 22 22 21 21 20 19 20 21 21 22 23 21 21 22 20 18 19 19 17 17 18 18 19 19 19 18 18 20 21 22 23 23 23 23 24 24 24 23 23 24 25 25 22 19 16 12 9 7 6 5 9 13 16 19 23 28 30 29 29 31 33 35 39 43 43 43 42 41 41
19 19 20 20 20 20 20 20 19 20 20 20 20 20 21 22 22 22 22 22 22 23 21 20 20 20 20 22 22 21 22 22 20 18 19 19 18 17 17 18 18 18 18 19 19 19 20 20 20 21 22 22 22 21 22 23 23 22 23 24 24 23 20 15 9 6 6 5 7 11 14 17 19 24 29 30 30 31 34 36 37 40 42 42 41 40 40
19 19 19 20 20 19 19 19 19 19 20 20 20 21 21 22 23 23 23 23 24 23 22 22 22 21 21 22 22 21 22 22 21 20 20 20 19 18 17 18 18 15 17 21 20 19 21 22 19 18 19 19 19 20 20 21 22 21 21 22 22 22 22 18 11 6 5 5 6 7 11 16 18 21 25 30 31 32 34 37 37 38 40 41 40 38 38
18 18 18 19 19 19 19 19 19 20 21 21 21 22 22 22 23 24 24 24 24 24 23 24 25 23 23 23 22 21 22 21 21 21 20 19 20 19 18 19 17 14 17 23 22 19 22 24 21 20 20 19 17 18 18 19 20 20 19 19 19 20 21 20 16 11 6 3 3 5 7 12 17 19 21 27 31 33 35 38 38 37 37 39 40 40 38
18 18 17 18 18 18 19 20 20 20 21 22 22 22 23 23 23 23 24 24 24 23 24 25 26 25 25 24 23 22 22 21 22 22 20 19 20 21 20 19 17 16 20 23 21 20 23 24 22 22 22 20 18 17 17 17 18 19 18 18 17 17 18 19 19 16 11 5 2 3 5 8 13 17 20 23 29 34 37 39 38 38 38 39 41 42 39
18 18 17 18 18 18 19 20 20 20 21 22 22 22 23 24 23 23 23 23 23 24 26 27 28 28 28 26 23 22 21 21 21 22 20 20 22 22 20 18 18 19 21 22 20 21 22 22 22 22 22 20 19 18 17 17 17 17 17 17 16 15 15 16 17 16 14 10 5 4 5 6 10 15 18 21 27 32 37 39 40 40 40 42 44 45 42
18 18 18 18 18 19 20 20 20 21 22 22 23 23 23 24 24 24 23 23 24 25 26 28 30 30 29 27 24 21 20 20 21 22 23 23 23 22 20 18 18 19 20 21 22 23 21 20 21 21 19 19 19 18 17 17 17 17 16 16 16 15 15 14 14 15 14 12 9 5 4 6 7 11 15 19 24 29 35 39 41 41 41 43 45 46 43
17 17 18 19 19 19 20 21 21 22 22 23 23 23 23 24 24 24 24 25 26 27 29 31 33 33 32 29 24 19 18 20 23 24 23 22 21 20 19 17 17 20 21 21 22 22 20 20 20 19 17 18 20 18 16 16 17 16 16 16 15 15 15 14 13 14 14 13 11 8 5 5 6 8 10 14 19 25 31 36 40 42 42 43 45 46 44
17 17 18 19 19 19 20 21 22 22 23 23 22 23 23 24 25 26 26 27 28 30 32 33 33 33 33 30 22 18 19 23 25 24 22 20 19 19 19 18 19 22 22 20 20 20 20 19 19 18 17 18 19 18 17 17 16 16 17 17 16 15 15 14 14 13 12 12 11 10 8 6 6 7 8 11 15 20 26 32 37 40 41 41 43 45 45
17 18 19 19 19 19 20 21 23 23 23 22 23 23 24 25 27 28 28 28 29 30 31 31 31 31 31 27 22 21 24 26 26 24 22 20 19 20 20 20 21 22 22 21 19 18 17 17 18 18 18 19 19 18 18 18 17 17 17 17 17 16 14 13 13 13 12 11 10 10 10 8 6 7 8 10 12 16 21 27 32 36 38 38 39 41 43
18 18 19 20 20 20 21 22 23 23 23 22 23 24 24 26 28 28 28 29 30 31 32 32 31 31 29 26 24 26 27 27 25 23 21 21 22 22 21 21 21 22 22 20 17 16 17 18 19 18 18 18 19 20 20 19 19 19 18 17 17 17 14 12 11 12 12 11 10 9 10 10 8 7 8 11 12 14 18 23 28 32 35 36 37 38 39
18 18 20 21 20 21 23 23 23 23 22 22 23 25 25 26 28 28 29 31 32 33 34 34 32 30 28 27 27 27 26 25 24 22 20 21 22 20 19 21 23 22 20 18 16 17 19 19 18 17 17 19 20 21 22 22 21 21 19 18 17 17 15 13 11 11 12 11 11 10 9 9 10 9 8 11 13 14 16 19 23 28 31 34 35 36 37
17 18 19 20 21 22 23 23 23 23 23 23 24 26 25 24 26 29 31 33 34 35 35 34 33 31 30 29 29 27 24 23 24 23 21 20 20 19 21 25 25 22 18 17 17 19 19 19 18 17 18 20 22 23 23 24 24 23 22 20 18 17 16 14 12 11 10 10 11 11 10 9 10 10 9 10 13 15 16 18 20 23 27 31 33 35 36
17 18 19 20 21 22 23 23 23 24 25 25 25 27 26 25 27 31 33 34 35 35 35 33 33 32 31 31 29 25 22 23 25 24 22 22 24 27 29 28 25 21 19 18 19 19 19 19 19 18 19 21 23 24 25 25 26 25 23 22 19 17 16 14 13 11 9 9 11 13 12 10 10 10 10 11 12 14 15 17 19 20 23 26 30 32 35
18 19 19 20 21 22 23 22 23 26 26 25 26 28 28 27 29 33 35 35 34 34 34 34 34 33 32 30 26 22 23 26 27 25 25 28 31 32 30 26 23 21 20 20 19 20 20 20 20 20 21 22 24 24 25 26 26 25 24 22 19 17 15 13 12 11 9 9 12 14 13 12 11 10 10 11 11 13 15 16 17 19 21 23 26 29 32
18 19 19 20 20 22 22 22 24 26 26 24 25 28 29 29 30 33 34 34 34 34 35 36 34 32 32 30 26 24 26 30 30 28 30 31 30 28 26 24 22 22 23 22 21 21 21 21 22 22 23 24 25 26 26 26 26 24 22 20 18 17 15 13 12 11 9 8 10 12 14 14 13 12 11 11 11 12 13 15 16 18 19 21 24 26 29
19 19 19 20 21 22 22 24 27 27 26 24 25 29 31 31 32 34 34 34 35 36 36 36 35 33 33 32 29 28 29 30 29 28 28 26 23 23 24 23 23 24 24 23 22 21 22 22 23 23 24 25 26 27 26 25 24 22 19 17 16 16 16 14 13 11 9 8 9 10 12 14 15 13 12 12 12 12 12 14 16 17 18 20 22 24 26
19 19 19 20 21 22 23 26 28 28 26 26 28 32 33 33 34 35 36 37 38 38 37 36 36 37 35 33 30 30 29 27 24 24 24 23 22 22 22 23 26 28 27 24 22 22 23 23 23 25 26 27 27 27 25 23 22 20 18 17 17 17 16 15 15 14 12 10 9 9 9 12 14 15 14 12 12 12 12 12 14 16 18 19 20 22 24
18 19 19 20 22 23 25 27 27 28 29 29 31 33 34 34 36 38 39 39 39 39 37 36 37 36 34 32 30 29 28 25 23 23 23 23 22 21 21 24 29 30 27 24 23 23 23 24 26 27 27 27 27 26 23 20 19 18 18 18 19 20 18 15 15 15 15 13 12 10 9 8 11 13 15 14 14 14 13 13 13 14 17 18 20 21 22
Wind_Direction
339 340 342 344 345 344 344 343 341 336 331 328 328 329 332 334 331 325 319 315 314 315 318 319 320 320 318 317 317 315 315 314 310 311 307 302 301 298 293 291 289 286 281 279 278 274 272 271 269 268 265 260 256 251 246 240 235 233 233 232 230 225 223 224 222 221 220 215 212 217 216 209 208 210 207 210 216 214 215 218 216 222 227 226 224 217 213
341 342 344 345 346 345 345 344 340 336 333 330 330 332 335 335 332 328 323 318 321 325 326 324 322 322 320 320 322 321 320 317 314 312 309 306 305 301 297 296 293 289 285 282 277 274 273 273 272 271 267 264 260 255 251 246 240 237 235 232 228 224 224 224 222 221 223 224 223 223 222 219 216 211 207 209 211 210 214 214 209 215 222 222 227 223 214
342 344 344 345 345 345 344 341 338 336 334 333 335 336 337 337 335 332 329 329 334 335 332 327 324 325 326 325 327 326 322 319 317 315 314 314 312 308 305 302 300 295 290 286 282 278 277 276 274 271 267 263 261 257 254 250 245 240 236 232 228 225 224 225 223 220 219 220 222 221 220 221 219 213 209 211 211 211 213 212 209 213 211 206 213 225 222
343 344 343 343 342 342 341 338 337 336 336 337 340 340 339 340 338 338 342 344 345 341 336 333 333 334 335 333 332 328 324 322 320 319 321 321 319 316 311 307 305 300 293 288 283 280 280 277 273 270 266 261 257 255 256 254 249 243 237 234 230 227 225 225 224 222 219 216 217 217 214 216 218 212 208 211 214 213 212 210 213 214 209 204 201 204 214
343 343 342 341 340 340 338 336 336 337 338 340 342 342 340 341 341 344 352 354 351 349 347 346 348 346 342 340 338 331 324 324 323 324 326 326 324 321 316 312 310 303 294 288 283 281 282 278 273 269 265 261 259 257 255 254 252 247 239 233 231 229 227 225 224 224 222 219 219 220 219 220 220 214 208 207 205 207 212 212 213 213 210 210 204 194 189
343 341 340 339 339 338 336 335 336 338 339 341 344 344 341 342 347 351 355 356 357 359 358 354 351 347 344 342 339 333 327 326 328 330 330 329 327 324 321 319 315 304 292 287 287 288 287 280 275 271 267 264 262 261 256 251 250 248 242 234 229 228 228 225 224 224 224 221 219 221 221 220 220 216 213 209 202 203 210 210 209 210 211 212 209 200 191
342 340 339 339 339 338 336 336 339 341 342 344 347 346 342 342 349 354 357 359 360 359 355 350 347 345 345 343 340 336 332 330 332 334 333 333 333 330 327 326 319 304 294 292 292 293 290 284 278 275 273 268 264 263 257 249 244 242 241 238 232 229 228 226 225 224 224 222 219 220 222 220 219 218 217 215 209 205 205 204 206 209 208 206 206 203 196
341 340 340 340 339 339 339 341 344 346 346 347 350 350 343 338 346 355 356 355 352 350 349 348 346 345 346 345 342 337 335 333 335 339 338 337 338 335 333 331 319 303 298 296 296 295 289 286 283 278 276 273 269 265 256 248 243 236 234 237 236 233 229 226 225 226 226 224 221 221 224 222 221 220 218 217 213 208 205 204 206 208 205 202 203 205 198
342 341 340 341 342 344 346 349 350 350 349 350 352 352 347 340 340 348 349 347 345 345 346 345 344 344 345 346 344 339 338 339 340 343 344 343 342 339 337 334 320 306 303 303 301 298 291 286 282 278 277 275 271 269 261 253 248 239 232 232 233 233 232 227 226 226 226 225 223 223 225 225 223 221 219 219 216 211 210 209 208 208 206 202 204 209 203
343 342 343 346 348 350 352 353 353 352 351 351 353 354 352 345 335 331 335 341 341 341 344 344 341 344 345 345 344 343 343 344 346 348 350 348 345 342 342 341 330 313 311 309 303 299 294 288 281 274 271 269 267 268 266 259 253 245 237 233 229 228 231 230 229 228 226 225 223 220 220 222 222 220 219 220 220 218 217 216 214 213 211 207 209 214 210
345 346 349 353 354 355 356 356 355 353 350 350 353 355 355 352 347 342 338 338 338 337 339 341 342 344 344 344 344 344 345 348 351 353 354 351 347 346 349 351 344 331 325 316 305 299 295 289 282 272 264 261 260 261 261 259 256 250 243 237 231 227 228 231 234 233 227 224 223 220 217 218 220 219 218 219 221 222 222 221 219 218 217 216 215 216 215
350 353 356 358 357 357 357 356 355 352 349 349 351 354 356 356 355 355 351 347 342 334 334 340 342 343 343 344 345 344 346 351 357 359 357 353 350 353 358 1 0 360 349 328 311 305 303 297 289 278 267 258 253 254 256 253 253 252 247 241 236 231 228 228 233 237 231 226 225 224 221 220 220 218 217 219 221 223 223 221 219 219 221 222 221 220 220
357 0 2 3 2 3 2 360 357 353 350 349 352 354 356 356 355 356 354 352 348 340 337 339 339 340 344 347 347 348 350 356 1 3 360 355 354 358 4 8 16 26 0 331 320 319 321 319 311 297 281 268 255 252 252 248 247 248 246 242 239 235 232 229 229 234 235 230 229 229 225 221 220 218 217 220 222 223 224 223 220 219 220 222 224 223 224
4 6 8 9 10 11 11 10 7 5 2 0 360 359 358 357 357 356 355 354 356 354 347 343 342 346 349 351 352 355 356 359 3 6 2 358 357 360 3 6 13 13 329 322 326 329 330 331 328 319 299 279 268 261 253 246 244 245 243 242 239 235 234 234 230 228 232 234 234 234 230 223 219 216 217 221 223 223 224 225 222 220 221 222 223 223 224
9 11 12 13 15 16 17 17 18 18 16 14 11 8 6 4 3 3 5 10 13 9 359 353 353 354 354 356 359 0 359 360 4 8 7 1 358 358 358 352 336 317 308 316 327 330 331 331 327 321 308 286 277 272 259 249 248 246 243 241 238 234 234 235 234 230 230 233 234 234 229 221 217 215 216 218 220 220 221 223 222 221 222 223 222 222 223
11 13 13 14 15 16 17 19 20 21 21 20 19 19 17 16 14 16 19 21 18 12 6 3 1 359 0 3 5 3 1 0 2 6 9 5 359 358 358 349 325 305 300 309 320 327 335 336 324 302 291 283 279 277 264 252 251 250 246 242 239 236 233 233 235 233 229 230 232 231 226 219 215 215 216 216 216 217 219 222 221 220 222 223 222 221 221
11 11 11 12 14 14 16 18 18 19 20 21 22 23 23 21 21 21 20 17 14 13 12 10 7 7 10 11 9 6 3 1 360 2 7 6 0 357 356 354 343 320 306 311 318 322 332 341 332 304 290 282 280 282 273 261 255 253 253 249 244 241 236 231 232 232 229 230 230 228 225 218 214 214 215 215 215 215 218 221 221 219 221 223 223 222 222
10 9 9 10 11 12 14 15 14 15 17 19 19 21 22 22 21 20 19 17 15 15 16 15 14 15 15 14 12 9 6 3 1 1 3 2 359 355 351 353 356 348 329 324 328 327 330 339 337 314 299 297 293 288 281 275 273 269 264 256 247 243 240 234 232 230 228 230 229 225 222 217 211 210 210 211 213 214 215 219 221 219 219 222 222 222 223
7 7 7 8 8 10 11 12 10 11 13 15 16 17 18 19 19 18 18 18 18 18 19 18 17 18 17 14 14 12 10 9 6 5 3 2 2 358 351 351 359 6 2 345 330 323 325 330 331 317 303 302 303 299 289 285 289 291 278 258 246 240 237 235 234 230 226 227 226 222 222 218 211 207 206 206 211 213 212 216 220 218 218 220 221 221 222
5 4 5 6 6 8 9 9 7 8 10 11 12 13 14 15 15 15 16 17 18 19 18 15 16 18 17 16 16 15 14 13 11 10 8 6 6 3 358 355 359 8 15 9 347 319 303 305 313 314 306 301 302 304 302 299 304 309 294 263 247 238 233 233 236 234 228 225 222 221 221 217 210 207 206 206 210 212 211 214 219 219 218 220 221 220 221
3 3 4 5 5 6 8 7 6 6 8 9 10 10 11 11 12 12 13 14 15 16 15 13 15 17 16 17 19 19 18 17 16 15 12 10 10 8 4 1 359 2 9 12 5 351 318 293 299 312 313 307 300 300 307 310 312 312 295 272 254 243 237 233 233 234 229 221 218 219 219 215 210 209 206 205 208 210 210 213 217 218 219 221 222 220 220
3 2 3 4 4 5 7 7 6 6 7 7 8 8 9 10 10 10 11 12 12 13 14 13 13 14 16 18 20 21 21 21 20 19 17 14 14 14 12 8 4 1 3 6 10 11 3 343 324 320 320 317 309 304 307 314 316 303 280 269 257 247 245 235 228 231 230 221 216 216 217 215 213 211 207 205 207 208 208 211 215 217 219 220 220 219 218
2 2 2 3 3 4 5 6 6 6 7 7 6 7 8 8 8 8 8 9 10 11 12 13 13 13 14 16 18 20 21 21 21 21 21 19 18 19 19 16 12 9 5 3 7 13 17 19 15 355 340 335 336 334 323 314 320 311 280 269 266 252 246 239 229 228 229 222 215 215 216 216 215 212 208 205 206 207 207 208 212 217 221 223 222 219 216
360 360 360 1 2 2 2 4 5 6 6 6 5 7 8 8 7 7 7 8 9 9 11 14 14 12 11 13 15 17 17 19 19 20 22 22 21 21 22 21 20 17 14 10 7 6 11 15 16 13 7 1 359 359 351 333 325 321 297 279 273 261 250 245 231 223 221 219 215 214 215 214 213 212 210 207 207 209 208 206 206 210 218 224 224 221 216
356 356 356 358 359 359 358 1 3 3 3 4 4 6 7 7 7 7 7 8 9 8 10 13 13 11 9 9 12 13 13 15 16 17 19 22 21 21 22 22 22 21 19 18 14 9 8 6 4 5 7 7 5 2 359 352 339 331 324 302 281 271 269 264 239 223 219 220 218 214 212 211 210 210 210 209 208 208 207 205 203 203 208 218 222 221 216
353 353 353 354 356 356 355 356 358 359 0 1 2 3 5 6 6 6 8 9 8 8 10 11 9 8 8 8 8 9 10 11 12 13 15 18 19 20 21 21 22 21 21 21 20 17 14 9 3 358 358 1 2 353 351 354 349 339 339 330 297 281 283 286 261 230 222 224 224 215 210 209 208 207 207 208 208 207 207 205 204 203 205 212 219 220 215
351 351 351 351 353 353 353 352 353 354 356 357 359 1 2 2 3 5 8 8 6 6 9 8 4 4 7 7 6 6 7 8 10 10 11 12 14 17 19 20 21 20 21 21 20 19 18 16 12 4 354 354 353 342 342 351 355 351 350 351 343 327 303 276 257 232 225 227 223 214 209 208 206 204 204 205 206 207 208 206 205 204 203 205 212 216 214
349 350 350 350 350 351 351 350 350 350 351 353 355 358 358 357 359 2 5 6 5 4 5 5 2 2 2 2 2 4 5 5 6 8 8 8 9 12 15 19 20 20 22 22 20 17 18 19 18 15 7 357 350 340 338 346 354 357 356 353 356 6 2 330 284 225 219 218 212 208 210 210 206 202 201 202 204 207 208 206 204 203 202 200 203 209 212
349 349 349 349 349 350 349 349 348 347 347 348 350 353 355 354 354 357 359 1 2 1 1 2 2 359 357 357 357 360 2 2 2 5 7 7 7 9 12 16 18 19 20 22 21 16 14 16 17 18 17 14 5 351 340 339 346 355 355 350 351 1 6 0 356 211 207 210 208 207 209 210 208 203 200 200 203 205 207 206 203 200 200 199 198 202 208
348 349 349 348 348 349 348 348 347 345 345 345 345 348 351 350 349 351 353 354 355 356 357 359 358 354 353 355 354 354 356 357 358 0 3 6 8 10 10 13 16 17 18 21 21 15 11 11 13 14 15 15 14 7 357 347 344 349 352 352 353 358 358 355 353 340 227 214 212 210 209 210 209 205 201 200 202 204 206 205 202 200 200 200 198 199 205
348 348 349 348 347 348 347 347 347 345 343 343 343 345 347 346 344 346 348 349 350 350 352 354 353 350 350 351 349 349 352 353 354 355 357 360 5 8 9 9 12 13 15 18 19 15 10 10 10 9 9 11 13 14 13 7 357 353 354 358 5 8 3 356 349 342 314 230 214 211 210 209 209 207 203 200 200 202 203 203 201 200 202 202 200 200 203
347 348 348 347 347 347 346 346 346 345 343 341 342 344 344 343 342 343 346 347 346 345 347 350 350 349 346 344 343 344 346 349 350 350 350 351 355 2 5 5 6 9 11 14 16 14 9 6 6 6 5 5 6 10 14 12 5 1 360 0 3 8 13 10 358 344 331 281 220 211 210 209 209 208 205 202 201 202 201 201 200 200 202 204 204 202 202
346 347 347 346 346 346 346 346 346 345 343 342 342 343 343 343 344 345 345 345 344 343 343 343 346 347 343 338 338 339 343 346 345 343 349 352 349 351 357 359 357 1 5 7 9 10 7 3 2 1 0 359 359 2 6 7 4 3 5 5 4 5 10 17 13 352 324 286 238 219 212 208 208 208 207 205 204 203 201 200 199 199 202 205 206 206 205
345 346 346 345 345 346 346 346 345 345 345 345 344 344 345 345 347 346 345 344 344 343 341 340 342 343 340 336 336 336 339 343 341 338 346 352 346 343 352 356 352 353 357 357 358 3 3 0 358 355 352 352 355 355 354 354 357 2 4 4 5 5 7 15 19 6 335 276 244 231 221 213 210 210 210 209 206 204 202 200 198 198 201 203 205 207 208
345 345 344 344 346 347 347 347 346 346 347 347 347 348 349 349 348 347 346 345 343 342 342 340 339 339 336 335 335 333 334 338 338 335 338 343 339 337 344 348 345 347 353 352 350 354 358 357 354 351 346 344 346 347 344 343 349 357 359 359 0 3 6 13 20 10 347 310 261 238 226 221 218 216 214 213 210 206 203 200 197 198 200 201 203 207 210
345 345 344 344 347 348 347 347 347 347 347 347 348 349 349 349 348 346 346 345 343 343 344 343 340 337 333 330 330 331 331 332 333 330 328 331 334 334 335 337 337 339 347 348 345 345 351 353 349 344 340 337 337 338 337 337 341 346 352 354 355 357 0 6 14 20 3 333 305 264 234 225 223 222 219 216 212 207 203 200 198 198 199 200 201 205 208
345 345 345 346 348 348 348 348 347 348 347 346 346 347 346 345 346 345 345 346 346 345 344 342 340 336 332 327 327 328 329 329 328 325 321 324 330 330 326 329 331 329 335 342 342 340 342 345 344 339 338 338 337 333 330 331 333 335 339 345 348 350 354 358 3 13 23 2 310 287 256 234 226 225 222 217 211 207 204 203 202 201 201 202 203 204 205
344 344 345 347 348 348 348 349 348 348 346 345 345 345 343 343 344 344 345 348 350 349 345 343 340 337 333 329 326 325 326 327 326 324 322 324 330 330 325 323 326 328 333 339 340 336 335 338 339 336 335 338 339 333 327 325 325 325 327 332 337 342 347 351 355 1 5 360 304 258 261 251 235 228 225 219 212 207 206 206 206 204 204 205 206 206 205
342 342 344 346 347 347 348 349 348 346 345 344 344 343 342 342 343 344 345 347 347 346 345 344 343 339 335 330 325 323 325 328 329 327 326 324 324 324 321 320 324 329 332 334 335 332 331 333 336 334 331 333 337 334 327 323 321 318 317 320 324 329 337 343 347 351 351 346 326 259 239 248 244 236 229 223 215 209 207 208 209 208 208 207 207 208 209
342 342 343 345 345 346 346 346 346 346 344 342 343 343 343 344 344 344 344 343 340 340 342 342 341 341 338 333 327 323 326 332 332 327 323 319 317 316 317 318 325 330 330 329 332 333 331 331 333 330 326 329 335 335 331 328 324 319 315 314 315 319 326 331 337 341 342 342 337 309 250 235 239 239 234 227 218 211 208 209 211 212 213 213 211 212 214
343 344 345 345 345 345 345 344 345 345 343 342 343 344 345 346 345 343 342 340 335 332 332 334 338 341 340 335 329 324 326 332 331 325 319 316 315 316 316 317 324 329 329 328 331 332 329 327 328 327 324 328 334 336 336 335 331 326 323 320 317 315 316 319 325 331 334 336 338 331 302 254 235 236 237 232 222 213 208 209 212 215 217 218 217 217 219
342 343 343 344 343 345 345 343 343 343 342 342 343 344 345 345 345 344 344 342 335 330 330 334 339 340 336 331 326 324 326 330 329 325 320 316 314 315 316 318 323 327 329 329 330 328 324 323 325 325 326 329 331 333 335 336 335 333 330 327 324 321 316 313 315 320 322 326 329 329 320 292 251 233 232 234 228 218 210 207 210 216 219 220 221 222 223
338 338 340 341 342 343 344 343 342 342 342 342 341 341 342 343 342 343 346 345 339 334 334 337 338 335 331 326 322 321 326 329 329 325 320 316 316 316 315 315 319 324 326 326 324 322 320 319 318 319 324 328 329 330 333 334 335 335 331 326 324 324 320 314 309 308 310 313 316 317 313 302 273 237 225 226 229 226 216 209 208 212 217 220 221 222 224
334 335 337 339 341 342 343 343 341 341 340 340 339 339 339 340 341 342 343 341 336 332 332 334 334 332 330 328 323 321 324 327 327 323 318 315 316 316 313 311 316 322 322 319 316 315 314 312 310 313 320 325 326 327 330 332 333 333 330 324 321 320 319 314 303 295 294 298 299 299 299 297 284 254 227 220 223 228 224 216 211 211 213 215 218 220 222
334 335 336 338 340 341 341 340 340 339 339 338 337 336 337 339 341 339 335 332 331 331 332 333 334 333 332 329 325 323 324 326 324 320 315 314 315 314 312 315 321 323 318 310 305 305 305 304 304 309 318 323 324 326 327 328 329 329 327 324 318 313 311 309 299 286 284 288 289 285 283 283 281 268 242 222 219 224 227 222 216 213 212 211 213 216 219
336 336 337 337 338 339 339 338 337 336 337 337 336 335 334 335 336 335 331 329 330 332 332 333 333 332 331 331 328 324 323 327 327 321 315 314 315 314 314 319 322 321 313 304 300 300 299 297 299 307 317 322 325 326 325 325 326 327 325 323 318 309 303 303 301 292 281 278 279 277 271 267 269 270 257 236 222 220 224 225 220 216 214 212 211 211 213
337 337 337 337 337 337 338 337 334 331 333 337 338 336 333 330 329 331 331 331 331 330 329 329 329 329 330 332 329 323 321 328 329 321 311 309 311 313 316 321 323 321 314 307 302 299 296 294 297 308 318 323 324 324 324 324 325 325 323 322 319 309 298 296 300 298 281 263 264 267 265 258 256 260 259 250 233 220 220 223 222 219 216 214 212 211 211
336 336 336 337 337 336 337 336 333 331 333 335 335 335 333 330 327 329 331 331 330 328 327 327 329 330 332 333 329 321 320 326 327 320 313 313 313 314 317 323 324 319 314 310 304 298 295 295 298 307 316 320 321 321 321 321 321 321 319 318 316 310 298 289 291 296 284 259 253 257 259 258 253 249 251 252 243 227 218 218 221 221 219 216 214 212 211
335 335 335 336 336 336 337 335 332 332 335 335 333 332 333 331 329 329 330 330 329 329 329 329 330 332 335 335 331 322 319 322 323 320 318 318 316 315 317 322 322 318 315 312 306 300 297 297 301 307 312 316 317 318 318 317 316 314 312 311 311 309 301 290 286 290 288 269 254 251 252 254 251 244 240 243 243 234 223 217 216 218 220 219 217 214 212
333 334 335 335 335 336 336 333 332 333 337 337 334 333 333 332 331 331 331 330 330 330 331 332 333 335 336 335 331 326 323 322 323 325 326 325 322 318 318 320 322 322 319 313 308 304 301 300 302 306 309 311 313 314 315 313 310 305 301 299 300 301 299 292 287 286 285 278 265 254 249 249 249 244 237 235 237 236 230 221 216 215 216 218 219 218 215
333 333 334 334 333 333 333 334 335 337 338 336 334 335 335 334 333 333 332 331 332 333 335 334 334 334 335 334 331 329 328 327 328 330 332 330 325 321 317 315 318 321 319 313 309 306 303 301 303 306 307 309 311 313 313 311 306 299 293 291 292 293 293 290 286 283 281 278 273 264 251 246 246 245 240 234 233 233 232 227 221 215 212 213 216 218 218
332 332 333 333 333 333 334 335 338 340 339 335 334 336 337 335 333 334 334 334 334 335 336 335 334 334 335 336 334 332 332 333 334 333 331 328 325 321 314 311 313 315 314 310 309 308 304 302 304 305 305 307 309 311 312 311 308 302 298 296 296 296 295 290 282 277 275 275 273 269 263 254 248 244 240 236 233 232 231 229 226 220 213 209 210 213 215
Height
5773 5770 5767 5765 5762 5760 5757 5755 5753 5751 5749 5746 5744 5742 5740 5738 5737 5736 5735 5734 5733 5731 5730 5729 5728 5728 5727 5726 5725 5724 5723 5722 5721 5720 5719 5718 5717 5717 5715 5713 5713 5711 5710 5709 5708 5706 5704 5702 5702 5703 5702 5699 5698 5701 5705 5710 5714 5717 5717 5715 5718 5726 5732 5733 5736 5739 5740 5743 5748 5749 5751 5756 5761 5767 5772 5777 5783 5789 5794 5798 5804 5807 5808 5811 5813 5818 5826
5772 5769 5766 5764 5761 5759 5756 5754 5752 5750 5747 5745 5743 5741 5739 5737 5735 5734 5733 5732 5730 5729 5728 5728 5727 5726 5725 5723 5723 5722 5721 5720 5719 5718 5717 5715 5714 5713 5711 5710 5708 5706 5704 5702 5701 5699 5697 5695 5693 5693 5692 5690 5691 5693 5694 5698 5704 5705 5704 5707 5715 5723 5725 5726 5730 5733 5736 5740 5743 5746 5749 5752 5755 5760 5766 5770 5776 5784 5789 5794 5799 5801 5804 5809 5811 5814 5821
5770 5768 5765 5763 5760 5758 5755 5753 5750 5748 5746 5743 5741 5739 5737 5735 5734 5732 5731 5730 5729 5728 5727 5726 5725 5724 5723 5722 5721 5720 5719 5717 5716 5715 5714 5713 5711 5710 5707 5705 5703 5701 5697 5694 5693 5691 5690 5688 5686 5685 5685 5684 5684 5684 5684 5689 5693 5693 5697 5705 5712 5717 5718 5719 5722 5725 5730 5736 5738 5740 5743 5744 5747 5754 5760 5766 5771 5777 5782 5788 5790 5791 5794 5802 5807 5810 5816
5769 5767 5765 5762 5759 5757 5754 5751 5749 5746 5744 5742 5739 5737 5736 5734 5732 5731 5729 5728 5727 5726 5725 5725 5723 5722 5721 5720 5719 5718 5716 5715 5714 5712 5711 5709 5708 5706 5703 5700 5697 5694 5690 5688 5687 5686 5685 5683 5681 5679 5679 5679 5678 5677 5679 5682 5683 5685 5692 5699 5703 5706 5709 5711 5714 5717 5723 5728 5729 5730 5732 5733 5738 5746 5753 5761 5767 5771 5776 5779 5780 5783 5789 5794 5800 5806 5812
5768 5766 5764 5761 5758 5755 5753 5750 5747 5745 5743 5740 5738 5736 5734 5733 5731 5729 5728 5727 5726 5725 5724 5723 5722 5721 5720 5718 5717 5716 5714 5713 5711 5709 5707 5706 5703 5701 5698 5694 5691 5687 5684 5682 5681 5681 5680 5678 5676 5675 5674 5673 5673 5673 5676 5677 5677 5681 5686 5689 5693 5697 5699 5703 5708 5711 5717 5722 5723 5724 5727 5729 5734 5739 5743 5747 5754 5761 5766 5768 5771 5780 5786 5788 5794 5801 5805
5767 5765 5763 5760 5757 5754 5751 5749 5746 5743 5741 5739 5737 5735 5733 5731 5730 5728 5727 5726 5725 5723 5722 5721 5720 5719 5718 5716 5715 5714 5712 5710 5708 5706 5704 5702 5700 5697 5693 5689 5685 5682 5680 5678 5677 5676 5675 5673 5672 5671 5670 5670 5669 5670 5672 5673 5674 5677 5679 5681 5685 5686 5689 5695 5701 5704 5709 5714 5716 5718 5720 5724 5728 5732 5735 5738 5744 5748 5753 5760 5767 5774 5778 5783 5791 5797 5799
5766 5764 5761 5759 5756 5753 5750 5747 5744 5742 5739 5737 5735 5733 5731 5730 5728 5727 5726 5725 5724 5723 5721 5720 5719 5717 5716 5715 5713 5711 5709 5707 5705 5703 5700 5698 5695 5692 5688 5684 5680 5678 5676 5675 5673 5672 5671 5670 5669 5668 5667 5667 5667 5667 5669 5670 5671 5672 5674 5676 5678 5679 5682 5688 5693 5695 5698 5702 5708 5711 5713 5718 5722 5726 5730 5734 5739 5743 5747 5754 5761 5765 5771 5778 5784 5789 5793
5765 5763 5760 5757 5754 5751 5748 5745 5743 5741 5738 5736 5734 5732 5730 5729 5728 5726 5725 5724 5723 5722 5720 5719 5717 5716 5714 5713 5711 5709 5707 5704 5702 5700 5697 5694 5691 5688 5684 5680 5677 5675 5673 5672 5671 5670 5669 5667 5666 5666 5665 5664 5664 5665 5665 5666 5667 5668 5671 5672 5673 5674 5677 5682 5685 5687 5689 5695 5703 5706 5709 5713 5717 5720 5725 5729 5734 5739 5743 5747 5753 5758 5765 5772 5777 5781 5786
5764 5762 5759 5756 5753 5750 5747 5744 5742 5740 5738 5736 5734 5732 5730 5728 5726 5725 5724 5723 5722 5721 5719 5718 5716 5715 5713 5711 5709 5707 5704 5702 5699 5697 5694 5691 5687 5684 5680 5677 5674 5673 5671 5670 5669 5667 5666 5665 5664 5663 5663 5662 5662 5662 5662 5663 5663 5665 5667 5669 5670 5671 5673 5676 5678 5680 5682 5690 5698 5703 5707 5710 5711 5714 5719 5724 5729 5733 5735 5740 5746 5751 5757 5765 5770 5772 5777
5764 5761 5758 5755 5752 5749 5746 5743 5741 5739 5737 5735 5733 5731 5729 5727 5725 5724 5723 5722 5721 5719 5718 5716 5715 5713 5711 5709 5707 5704 5702 5699 5697 5694 5691 5688 5685 5681 5678 5674 5672 5671 5670 5669 5667 5666 5664 5663 5662 5661 5660 5660 5660 5660 5660 5661 5661 5662 5664 5665 5667 5669 5669 5671 5673 5674 5678 5684 5690 5696 5701 5700 5700 5707 5715 5719 5723 5728 5732 5737 5743 5747 5752 5758 5762 5765 5772
5763 5760 5757 5754 5751 5748 5746 5743 5740 5738 5736 5734 5732 5730 5728 5726 5724 5723 5722 5721 5719 5718 5716 5715 5713 5711 5709 5706 5704 5702 5700 5697 5694 5692 5689 5685 5682 5679 5675 5672 5670 5669 5668 5667 5665 5664 5662 5661 5659 5658 5658 5658 5658 5658 5659 5659 5659 5660 5661 5662 5664 5665 5667 5669 5669 5670 5673 5678 5683 5687 5688 5687 5692 5703 5711 5715 5719 5724 5728 5733 5739 5745 5749 5752 5754 5760 5765
5762 5759 5757 5754 5751 5748 5745 5742 5740 5737 5735 5733 5731 5729 5727 5725 5723 5722 5720 5719 5718 5716 5715 5713 5712 5710 5707 5705 5702 5700 5698 5695 5692 5689 5686 5684 5681 5677 5674 5671 5669 5668 5667 5666 5664 5662 5661 5660 5658 5656 5656 5655 5655 5656 5656 5657 5657 5658 5658 5659 5661 5663 5665 5666 5666 5666 5669 5674 5676 5677 5678 5682 5690 5701 5707 5710 5714 5717 5720 5725 5733 5738 5742 5744 5748 5753 5756
5762 5759 5757 5754 5751 5748 5745 5742 5739 5737 5734 5732 5730 5728 5726 5725 5723 5721 5719 5717 5716 5714 5713 5712 5710 5708 5706 5704 5701 5699 5696 5693 5690 5687 5685 5682 5679 5675 5672 5671 5669 5667 5666 5664 5663 5661 5660 5658 5657 5655 5654 5653 5653 5653 5653 5654 5655 5655 5656 5657 5658 5659 5661 5663 5664 5664 5666 5669 5669 5669 5673 5681 5689 5698 5704 5706 5708 5712 5716 5721 5725 5730 5735 5739 5743 5748 5752
5762 5759 5757 5754 5751 5748 5745 5742 5739 5736 5734 5732 5729 5727 5725 5723 5721 5720 5718 5716 5714 5713 5712 5711 5709 5707 5705 5702 5700 5697 5694 5692 5689 5686 5683 5680 5677 5674 5672 5671 5669 5667 5665 5663 5662 5661 5659 5657 5655 5654 5653 5652 5652 5651 5651 5652 5652 5653 5653 5654 5655 5656 5657 5660 5661 5662 5663 5665 5666 5668 5672 5680 5688 5695 5699 5700 5704 5709 5713 5716 5721 5728 5733 5735 5738 5742 5746
5762 5759 5757 5754 5751 5748 5745 5742 5739 5737 5734 5732 5729 5727 5725 5723 5721 5719 5717 5715 5714 5712 5711 5709 5707 5705 5703 5701 5698 5696 5693 5690 5688 5685 5682 5680 5677 5674 5672 5670 5668 5666 5664 5663 5661 5660 5658 5656 5654 5653 5652 5651 5651 5650 5650 5649 5650 5650 5650 5651 5652 5652 5654 5656 5657 5659 5661 5662 5663 5665 5668 5675 5683 5688 5690 5693 5699 5704 5707 5709 5715 5723 5727 5727 5730 5736 5740
5762 5760 5757 5755 5752 5749 5746 5743 5740 5738 5735 5732 5730 5727 5725 5723 5720 5719 5717 5715 5713 5712 5710 5708 5707 5705 5703 5700 5697 5694 5692 5689 5687 5685 5682 5680 5677 5674 5671 5669 5667 5665 5663 5662 5660 5659 5657 5656 5654 5652 5651 5650 5649 5649 5648 5647 5647 5648 5647 5648 5649 5649 5651 5653 5654 5656 5658 5658 5659 5661 5664 5670 5675 5679 5683 5688 5694 5699 5702 5703 5706 5712 5717 5719 5725 5731 5735
5762 5760 5758 5755 5752 5749 5747 5744 5741 5739 5736 5733 5731 5728 5726 5723 5721 5719 5717 5715 5713 5711 5710 5708 5707 5705 5702 5699 5696 5694 5691 5688 5686 5683 5681 5679 5677 5674 5671 5669 5666 5664 5662 5660 5659 5658 5657 5655 5653 5651 5650 5649 5648 5647 5646 5645 5645 5645 5645 5645 5646 5646 5647 5648 5650 5652 5654 5655 5656 5658 5661 5665 5669 5673 5678 5684 5689 5694 5696 5697 5700 5706 5711 5714 5720 5726 5731
5762 5760 5758 5755 5752 5750 5747 5744 5742 5739 5736 5734 5731 5729 5726 5724 5722 5719 5718 5716 5713 5711 5710 5708 5706 5704 5701 5699 5696 5693 5690 5688 5685 5682 5680 5679 5676 5674 5670 5668 5665 5663 5660 5658 5657 5656 5655 5654 5652 5650 5649 5648 5646 5645 5644 5643 5642 5642 5642 5641 5642 5642 5643 5644 5645 5648 5651 5652 5653 5656 5658 5660 5663 5668 5673 5678 5682 5686 5688 5690 5695 5701 5704 5707 5713 5720 5725
5762 5760 5758 5755 5753 5750 5747 5745 5742 5739 5737 5734 5732 5729 5727 5724 5722 5720 5718 5716 5714 5712 5710 5708 5706 5703 5701 5699 5696 5693 5690 5687 5685 5682 5680 5678 5675 5673 5670 5667 5664 5662 5659 5657 5655 5654 5653 5652 5651 5649 5648 5646 5644 5643 5641 5640 5639 5639 5638 5637 5637 5638 5638 5639 5641 5643 5646 5648 5650 5653 5654 5654 5658 5663 5667 5672 5676 5680 5682 5685 5689 5694 5698 5702 5707 5713 5719
5762 5760 5758 5755 5753 5750 5747 5745 5742 5740 5737 5734 5732 5729 5727 5725 5722 5720 5718 5716 5714 5712 5710 5708 5706 5703 5701 5699 5696 5693 5690 5687 5684 5682 5679 5677 5674 5672 5669 5666 5663 5661 5658 5656 5654 5653 5652 5651 5649 5648 5646 5644 5642 5641 5640 5638 5636 5636 5635 5634 5634 5634 5634 5635 5637 5639 5642 5644 5646 5648 5648 5649 5654 5659 5663 5667 5671 5675 5679 5682 5685 5690 5695 5698 5703 5708 5713
5762 5760 5758 5755 5753 5750 5747 5745 5742 5740 5737 5735 5732 5730 5727 5725 5723 5720 5718 5716 5714 5712 5710 5708 5706 5704 5702 5699 5696 5694 5691 5688 5684 5681 5679 5676 5674 5672 5668 5665 5662 5660 5658 5656 5654 5651 5650 5649 5648 5646 5644 5642 5641 5639 5638 5636 5635 5634 5633 5632 5632 5631 5631 5632 5633 5635 5637 5639 5640 5642 5644 5647 5651 5654 5658 5663 5666 5669 5673 5677 5680 5685 5690 5694 5699 5704 5709
5762 5759 5757 5755 5753 5750 5747 5745 5742 5740 5737 5735 5732 5730 5727 5725 5723 5721 5718 5716 5714 5712 5710 5708 5706 5704 5702 5699 5697 5694 5691 5688 5685 5682 5679 5677 5674 5671 5668 5665 5662 5659 5657 5655 5653 5651 5649 5647 5646 5645 5643 5641 5639 5638 5636 5635 5633 5632 5631 5630 5630 5629 5629 5629 5630 5630 5631 5634 5636 5638 5640 5643 5646 5649 5652 5657 5662 5665 5668 5672 5676 5681 5686 5690 5695 5701 5706
5761 5759 5757 5755 5752 5750 5747 5745 5742 5740 5737 5735 5733 5730 5727 5725 5723 5721 5719 5716 5714 5712 5710 5708 5706 5704 5702 5699 5697 5694 5691 5689 5686 5683 5681 5677 5674 5671 5668 5665 5662 5659 5657 5654 5652 5650 5648 5646 5645 5644 5642 5640 5638 5637 5635 5633 5631 5630 5629 5628 5627 5627 5627 5627 5627 5627 5629 5631 5633 5635 5636 5638 5641 5644 5648 5652 5657 5661 5664 5669 5674 5679 5683 5687 5692 5697 5704
5761 5759 5757 5754 5752 5750 5747 5745 5742 5740 5737 5735 5733 5730 5728 5725 5723 5721 5718 5716 5714 5712 5709 5707 5706 5703 5701 5699 5697 5694 5692 5689 5687 5684 5681 5678 5675 5672 5669 5666 5662 5659 5656 5653 5651 5649 5647 5646 5644 5643 5641 5639 5638 5636 5634 5632 5630 5628 5627 5625 5624 5624 5624 5624 5624 5625 5626 5627 5629 5630 5632 5635 5638 5641 5645 5648 5652 5656 5661 5666 5671 5675 5680 5685 5689 5694 5701
5760 5758 5756 5754 5751 5749 5747 5744 5742 5740 5737 5735 5733 5730 5728 5725 5723 5720 5718 5716 5713 5711 5709 5707 5705 5703 5701 5699 5697 5695 5692 5690 5687 5685 5682 5679 5676 5673 5670 5666 5663 5660 5657 5654 5651 5649 5646 5644 5642 5641 5640 5638 5636 5635 5633 5631 5629 5627 5625 5623 5622 5622 5622 5621 5621 5622 5623 5624 5625 5627 5630 5632 5634 5637 5640 5644 5648 5653 5659 5664 5668 5671 5676 5681 5685 5690 5697
5760 5758 5755 5753 5751 5748 5746 5744 5741 5739 5737 5735 5733 5730 5728 5725 5723 5721 5718 5715 5713 5711 5709 5706 5705 5703 5701 5699 5697 5695 5693 5690 5688 5685 5682 5679 5677 5674 5671 5667 5664 5661 5658 5655 5653 5649 5646 5644 5642 5640 5639 5637 5635 5634 5632 5631 5629 5627 5625 5623 5621 5620 5620 5620 5620 5620 5621 5621 5622 5624 5626 5629 5631 5634 5638 5641 5646 5651 5656 5660 5665 5668 5673 5677 5682 5687 5694
5759 5757 5755 5752 5750 5748 5745 5743 5741 5738 5736 5734 5732 5730 5728 5725 5723 5720 5718 5715 5713 5711 5708 5706 5705 5703 5701 5699 5697 5695 5692 5690 5688 5685 5682 5680 5677 5674 5671 5668 5666 5663 5660 5657 5654 5651 5648 5646 5643 5641 5639 5637 5635 5634 5632 5631 5629 5627 5625 5623 5622 5620 5619 5619 5619 5619 5619 5619 5620 5623 5625 5627 5629 5633 5637 5640 5644 5649 5652 5656 5661 5665 5669 5673 5678 5683 5690
5759 5756 5754 5752 5749 5747 5745 5742 5740 5738 5736 5733 5731 5729 5727 5725 5723 5720 5718 5715 5713 5711 5708 5706 5704 5702 5700 5699 5696 5694 5692 5690 5687 5685 5682 5680 5678 5675 5672 5669 5666 5663 5661 5659 5656 5653 5650 5647 5644 5642 5640 5638 5636 5634 5632 5630 5628 5627 5625 5624 5622 5621 5620 5618 5618 5619 5620 5620 5621 5622 5624 5626 5628 5631 5635 5639 5642 5646 5650 5654 5658 5663 5667 5670 5674 5679 5686
5758 5756 5753 5751 5749 5746 5744 5742 5739 5737 5735 5733 5731 5728 5726 5724 5722 5720 5717 5715 5713 5710 5708 5706 5703 5701 5700 5698 5696 5694 5691 5689 5687 5685 5682 5680 5677 5675 5672 5669 5667 5664 5661 5659 5656 5653 5651 5649 5646 5644 5641 5638 5636 5634 5632 5630 5628 5626 5625 5623 5622 5621 5620 5619 5619 5619 5620 5620 5621 5622 5624 5626 5628 5631 5633 5637 5640 5644 5648 5652 5656 5661 5665 5668 5671 5676 5682
5757 5755 5752 5750 5748 5746 5743 5741 5738 5736 5734 5732 5730 5728 5725 5723 5721 5719 5717 5715 5712 5710 5707 5705 5703 5701 5699 5697 5695 5693 5691 5688 5686 5684 5682 5679 5677 5674 5672 5669 5667 5665 5662 5659 5657 5655 5653 5650 5647 5645 5642 5639 5637 5634 5632 5630 5628 5626 5625 5623 5622 5621 5620 5619 5619 5619 5619 5619 5620 5621 5623 5626 5628 5630 5632 5635 5638 5642 5645 5649 5654 5658 5662 5666 5669 5673 5678
5756 5753 5751 5749 5747 5745 5742 5740 5738 5735 5733 5731 5729 5727 5724 5722 5720 5718 5716 5714 5711 5709 5707 5704 5702 5700 5697 5695 5694 5692 5690 5688 5686 5684 5681 5679 5676 5674 5671 5669 5667 5665 5663 5661 5659 5657 5654 5651 5648 5647 5644 5641 5638 5635 5632 5630 5629 5627 5625 5623 5622 5621 5619 5618 5618 5618 5618 5618 5619 5620 5622 5624 5627 5629 5631 5633 5636 5639 5642 5646 5651 5655 5659 5663 5667 5670 5674
5755 5753 5750 5748 5746 5744 5741 5739 5737 5734 5732 5730 5728 5726 5724 5722 5720 5717 5715 5713 5711 5708 5706 5704 5701 5698 5696 5695 5693 5691 5689 5687 5685 5683 5681 5678 5675 5673 5671 5669 5667 5666 5664 5662 5660 5657 5655 5653 5650 5648 5645 5642 5639 5636 5633 5631 5629 5628 5626 5624 5622 5620 5619 5618 5617 5617 5616 5617 5618 5619 5621 5623 5625 5627 5629 5632 5634 5637 5640 5644 5648 5652 5656 5660 5664 5667 5671
5754 5752 5749 5747 5745 5743 5740 5738 5735 5733 5731 5729 5727 5725 5723 5721 5718 5716 5714 5712 5710 5708 5705 5703 5700 5698 5695 5693 5691 5689 5688 5686 5684 5682 5680 5677 5674 5673 5671 5669 5668 5666 5664 5662 5659 5657 5655 5653 5651 5648 5645 5643 5640 5637 5634 5632 5631 5628 5626 5623 5622 5620 5619 5618 5617 5617 5616 5616 5617 5618 5619 5621 5624 5626 5628 5631 5633 5635 5638 5642 5645 5650 5654 5658 5661 5665 5668
5753 5750 5748 5746 5744 5742 5739 5737 5734 5732 5730 5728 5726 5724 5721 5719 5717 5715 5713 5711 5709 5707 5705 5702 5700 5697 5694 5692 5690 5688 5686 5684 5683 5681 5679 5677 5675 5673 5671 5669 5668 5666 5663 5661 5659 5657 5655 5653 5650 5648 5646 5643 5640 5637 5635 5634 5631 5629 5625 5623 5621 5620 5619 5617 5617 5616 5616 5616 5617 5618 5619 5620 5622 5625 5627 5629 5631 5633 5636 5640 5643 5647 5651 5655 5659 5663 5665
5751 5749 5747 5745 5743 5741 5738 5736 5733 5731 5729 5727 5725 5723 5720 5718 5716 5714 5712 5709 5707 5705 5703 5701 5699 5697 5694 5691 5689 5687 5685 5683 5681 5679 5677 5676 5675 5673 5671 5669 5667 5666 5663 5661 5659 5657 5655 5653 5650 5648 5646 5643 5641 5639 5637 5634 5632 5629 5626 5624 5622 5620 5619 5617 5616 5616 5615 5615 5616 5617 5618 5619 5621 5623 5624 5626 5629 5631 5634 5638 5641 5645 5649 5653 5657 5660 5663
5750 5748 5746 5744 5742 5739 5737 5735 5732 5730 5728 5726 5724 5721 5719 5717 5715 5712 5710 5708 5706 5704 5702 5700 5697 5695 5693 5690 5688 5686 5684 5682 5679 5677 5676 5675 5674 5672 5670 5668 5666 5664 5662 5660 5658 5656 5654 5653 5651 5648 5646 5644 5642 5639 5637 5634 5632 5629 5627 5625 5623 5621 5619 5618 5617 5616 5615 5615 5615 5615 5616 5618 5619 5620 5622 5624 5627 5630 5632 5635 5639 5642 5646 5650 5653 5656 5659
5749 5747 5745 5743 5741 5738 5736 5734 5731 5729 5727 5725 5723 5720 5718 5716 5714 5711 5709 5707 5705 5702 5700 5698 5696 5693 5691 5689 5687 5685 5683 5680 5678 5677 5675 5674 5672 5670 5668 5667 5665 5663 5661 5659 5656 5655 5653 5651 5649 5647 5645 5643 5641 5638 5636 5634 5632 5629 5627 5625 5624 5622 5620 5618 5617 5616 5615 5614 5614 5614 5615 5616 5617 5618 5620 5621 5624 5627 5630 5633 5636 5639 5642 5646 5650 5652 5655
5748 5746 5744 5742 5740 5737 5735 5733 5730 5728 5726 5724 5722 5719 5717 5715 5712 5710 5707 5705 5703 5701 5699 5696 5694 5692 5690 5687 5685 5683 5681 5679 5677 5675 5673 5671 5669 5667 5666 5665 5663 5661 5659 5657 5655 5653 5651 5649 5647 5645 5643 5641 5639 5637 5635 5633 5631 5629 5627 5625 5624 5622 5620 5618 5617 5616 5614 5614 5614 5613 5613 5614 5615 5616 5618 5619 5621 5624 5627 5630 5633 5636 5639 5642 5646 5649 5652
5746 5745 5743 5741 5739 5736 5734 5732 5729 5727 5725 5723 5720 5718 5715 5713 5711 5708 5706 5704 5702 5700 5697 5695 5693 5690 5688 5685 5684 5682 5680 5677 5675 5672 5670 5669 5667 5666 5665 5663 5661 5659 5657 5656 5654 5652 5650 5648 5646 5643 5641 5639 5638 5636 5633 5631 5630 5629 5627 5625 5623 5622 5620 5618 5617 5616 5615 5614 5613 5612 5612 5613 5613 5614 5615 5617 5619 5621 5624 5628 5630 5633 5636 5639 5642 5645 5648
5745 5743 5742 5739 5737 5735 5733 5731 5728 5726 5724 5721 5719 5716 5714 5711 5709 5707 5705 5702 5700 5698 5696 5693 5691 5689 5687 5684 5682 5680 5678 5676 5673 5671 5669 5667 5666 5665 5663 5660 5658 5657 5655 5654 5652 5650 5648 5646 5645 5643 5640 5638 5636 5634 5632 5630 5629 5627 5626 5624 5622 5621 5619 5618 5617 5616 5614 5613 5612 5611 5611 5611 5612 5612 5613 5615 5616 5619 5622 5625 5628 5630 5633 5636 5639 5641 5644
5744 5742 5740 5738 5736 5734 5732 5729 5727 5725 5722 5720 5717 5715 5713 5710 5708 5706 5703 5701 5698 5695 5693 5691 5689 5686 5684 5682 5680 5678 5677 5674 5672 5669 5667 5665 5663 5662 5661 5658 5656 5655 5653 5651 5649 5647 5646 5644 5643 5641 5638 5636 5634 5633 5631 5630 5628 5626 5624 5622 5621 5620 5618 5617 5616 5615 5614 5612 5611 5610 5610 5610 5610 5611 5612 5612 5614 5616 5618 5621 5624 5627 5629 5632 5635 5637 5640
5743 5741 5739 5737 5735 5733 5731 5728 5726 5723 5721 5718 5716 5713 5711 5709 5707 5704 5702 5700 5697 5694 5692 5690 5688 5685 5683 5680 5678 5676 5674 5672 5669 5667 5665 5663 5661 5660 5658 5657 5654 5652 5650 5648 5647 5645 5643 5642 5640 5638 5636 5634 5632 5631 5630 5628 5626 5624 5622 5621 5619 5618 5617 5616 5615 5614 5613 5611 5610 5609 5609 5608 5608 5609 5610 5611 5612 5613 5615 5617 5620 5622 5625 5628 5630 5633 5636
5742 5740 5738 5736 5734 5732 5730 5727 5724 5722 5719 5717 5714 5712 5709 5707 5705 5703 5700 5698 5696 5693 5691 5689 5687 5685 5682 5679 5676 5674 5672 5669 5666 5664 5662 5660 5658 5657 5655 5654 5652 5650 5648 5646 5645 5643 5641 5639 5637 5636 5634 5632 5631 5629 5628 5626 5625 5623 5621 5619 5618 5617 5615 5614 5613 5612 5611 5611 5610 5609 5608 5607 5607 5607 5608 5609 5610 5611 5612 5614 5616 5619 5621 5624 5626 5629 5632
5740 5739 5737 5735 5732 5730 5728 5725 5723 5720 5718 5715 5713 5711 5708 5706 5703 5701 5699 5697 5694 5692 5690 5687 5684 5682 5679 5677 5675 5672 5670 5667 5664 5662 5660 5658 5656 5654 5652 5651 5650 5648 5646 5644 5642 5641 5639 5637 5635 5634 5632 5630 5629 5627 5625 5624 5623 5621 5620 5618 5616 5615 5614 5613 5612 5610 5610 5609 5609 5608 5607 5606 5606 5606 5606 5607 5608 5608 5610 5611 5613 5615 5618 5620 5623 5626 5629
5739 5737 5735 5733 5731 5729 5726 5724 5721 5719 5716 5714 5711 5709 5707 5705 5703 5700 5698 5695 5693 5690 5687 5684 5681 5679 5677 5674 5672 5669 5667 5664 5661 5659 5658 5656 5654 5652 5651 5649 5647 5646 5644 5642 5640 5638 5636 5635 5633 5632 5630 5628 5626 5625 5623 5621 5620 5619 5618 5616 5614 5613 5612 5611 5610 5609 5609 5608 5608 5607 5606 5605 5604 5604 5604 5605 5605 5606 5607 5608 5610 5612 5614 5617 5619 5622 5625
5738 5736 5734 5732 5730 5727 5725 5722 5719 5717 5715 5713 5710 5708 5706 5704 5702 5699 5696 5693 5690 5687 5684 5681 5678 5676 5674 5671 5668 5666 5664 5662 5659 5657 5655 5653 5651 5649 5648 5646 5644 5642 5640 5638 5637 5635 5634 5632 5631 5630 5628 5625 5623 5622 5620 5618 5617 5616 5615 5614 5612 5611 5610 5609 5608 5608 5607 5606 5605 5604 5604 5603 5603 5603 5603 5603 5603 5603 5604 5606 5607 5609 5611 5614 5616 5618 5621
5736 5735 5733 5731 5728 5726 5724 5721 5718 5715 5713 5711 5708 5706 5704 5702 5700 5697 5694 5690 5687 5684 5681 5678 5676 5674 5671 5668 5665 5662 5660 5659 5656 5654 5653 5650 5648 5646 5645 5642 5640 5638 5636 5635 5633 5632 5631 5629 5628 5627 5625 5623 5621 5619 5617 5616 5614 5613 5612 5610 5609 5608 5607 5607 5606 5605 5605 5604 5603 5602 5601 5601 5601 5601 5601 5601 5601 5602 5602 5603 5605 5606 5608 5610 5613 5615 5617
5735 5733 5731 5729 5727 5725 5722 5719 5716 5713 5711 5709 5707 5704 5702 5700 5697 5694 5691 5687 5684 5681 5678 5675 5672 5670 5668 5665 5662 5659 5657 5656 5654 5652 5650 5648 5645 5643 5641 5638 5636 5634 5633 5631 5630 5629 5627 5626 5625 5624 5622 5620 5618 5617 5615 5613 5611 5610 5609 5607 5606 5605 5605 5604 5603 5603 5602 5602 5601 5600 5599 5599 5600 5600 5600 5600 5600 5600 5600 5601 5602 5604 5605 5607 5609 5612 5614
5734 5732 5730 5728 5726 5724 5721 5718 5715 5712 5710 5708 5705 5703 5700 5698 5695 5692 5688 5685 5681 5678 5675 5671 5668 5666 5663 5661 5659 5657 5655 5653 5651 5649 5646 5644 5641 5639 5636 5634 5633 5631 5629 5628 5627 5626 5624 5623 5622 5621 5619 5618 5616 5614 5612 5610 5609 5607 5606 5604 5603 5602 5602 5601 5601 5600 5600 5599 5599 5598 5597 5597 5597 5598 5598 5598 5598 5599 5599 5600 5600 5601 5602 5604 5606 5608 5610
5733 5731 5729 5727 5724 5722 5720 5717 5714 5711 5708 5706 5704 5701 5698 5695 5692 5689 5685 5682 5678 5675 5671 5668 5665 5662 5660 5657 5655 5653 5651 5649 5646 5644 5642 5639 5637 5635 5633 5631 5629 5628 5626 5625 5623 5622 5621 5620 5619 5617 5616 5614 5613 5611 5609 5607 5606 5604 5603 5602 5601 5600 5599 5599 5598 5598 5598 5597 5596 5596 5595 5595 5595 5596 5597 5597 5597 5597 5598 5598 5599 5599 5600 5602 5603 5605 5607
5732 5730 5728 5725 5723 5721 5718 5715 5712 5709 5707 5704 5701 5698 5695 5692 5688 5685 5682 5678 5675 5672 5669 5665 5662 5659 5656 5654 5652 5649 5647 5645 5643 5641 5639 5636 5634 5633 5631 5628 5626 5624 5623 5622 5620 5619 5618 5616 5615 5614 5612 5611 5609 5608 5606 5604 5602 5601 5600 5599 5599 5598 5597 5596 5595 5595 5595 5595 5594 5593 5593 5593 5593 5594 5595 5595 5595 5596 5596 5597 5597 5598 5599 5600 5601 5602 5604
5730 5728 5726 5724 5722 5719 5717 5714 5711 5708 5705 5702 5699 5695 5692 5689 5685 5682 5679 5675 5672 5669 5667 5664 5660 5656 5653 5650 5648 5646 5644 5642 5639 5638 5636 5634 5632 5631 5630 5627 5624 5622 5620 5618 5617 5616 5614 5613 5612 5610 5609 5607 5605 5604 5603 5601 5600 5598 5597 5597 5596 5595 5594 5593 5593 5592 5592 5591 5591 5591 5591 5591 5591 5591 5592 5593 5593 5594 5594 5595 5596 5596 5597 5598 5599 5600 5602